Location: Marcé
(47.5801°N, 0.3280°W)
Time: 19:08:02
(UTC+01:00)

Tiros 1 - Pass Details

Date: 04 December 2021
Orbit: 629 x 664 km, 48.4° (Epoch: 26 January)

Event Time Altitude Azimuth Distance (km) Brightness Sun altitude
Rises 21:27:18 0° 262° (W) 2,928 11.3 -42.2°
Enters shadow 21:28:54 - 263° (W) 2,297 10.6 -42.5°
Reaches altitude 10° 21:29:36 10° 263° (W) 2,026 - -42.6°
Maximum altitude 21:34:17 84° 353° (N) 651 - -43.4°
Drops below altitude 10° 21:39:01 10° 82° (E) 2,050 - -44.2°
Sets 21:41:23 0° 83° (E) 2,967 - -44.5°
